Home   Weather   Paris   Past weeks
Flag for USA

Past Weather in Paris, Tennessee, USA — Yesterday and Last 2 Weeks

Now
73 °F

Partly sunny.


Feels Like: 70 °F
Forecast: 90 / 74 °F
Wind: 9 mph from Southwest

Location: Mayfield Graves County Airport

Current Time: Jul 18, 2019 at 8:47:00 am

Latest Report: Jul 18, 2019 at 8:15 am


Visibility: 10 mi

Pressure: 30.02 "Hg

Humidity: 94%

Dew Point: 72 °F

Location of ParisLocation

Past Weather in Paris — Graph

°F

Paris Temperature Yesterday

Maximum temperature yesterday: 90 °F (at 3:15 pm)
Minimum temperature yesterday: 72 °F (at 11:55 pm)
Average temperature yesterday: 80 °F

High & Low Weather Summary for the Past Weeks

 TemperatureHumidityPressure
High91 °F (Jul 9, 4:15 pm)100% (Jul 4, 5:55 am)30.20 "Hg (Jul 4, 5:55 am)
Low68 °F (Jul 12, 3:15 am)49% (Jul 12, 2:35 pm)29.89 "Hg (Jul 11, 5:15 pm)
Average78 °F83%30.01 "Hg
* Reported Jul 3 7:35 am — Jul 18 7:15 am, Paris. Weather by CustomWeather, © 2019

Note: Actual official high and low records may vary slightly from our data, if they occured in-between our weather recording intervals... More about our weather records

Advertising

Paris Weather History for the Previous 24 Hours

Scroll right to see more
 ConditionsComfort  
Time TempWeatherWind HumidityBarometerVisibility
7:15 am
Thu, Jul 18
73 °FScattered clouds.No wind94%30.03 "Hg10 mi
6:55 am72 °FBroken clouds.No wind100%30.03 "Hg10 mi
6:35 am72 °FScattered clouds.No wind100%30.03 "Hg10 mi
6:15 am72 °FSunny.3 mph100%30.02 "Hg10 mi
5:55 am72 °FSunny.6 mph100%30.01 "Hg10 mi
5:35 am72 °FClear.5 mph100%30.01 "Hg10 mi
5:15 am72 °FClear.3 mph100%30.00 "Hg10 mi
4:55 am72 °FClear.5 mph100%30.00 "Hg10 mi
4:35 am72 °FClear.7 mph100%29.99 "Hg10 mi
4:15 am72 °FClear.6 mph100%29.99 "Hg10 mi
3:35 am72 °FClear.5 mph100%29.96 "Hg10 mi
2:55 am72 °FClear.3 mph100%29.95 "Hg10 mi
2:35 am72 °FClear.No wind100%29.96 "Hg10 mi
2:15 am72 °FClear.No wind100%29.96 "Hg10 mi
1:55 am73 °FClear.8 mph94%29.96 "Hg10 mi
1:35 am73 °FClear.9 mph89%29.97 "Hg10 mi
1:15 am73 °FClear.10 mph94%29.98 "Hg10 mi
12:55 am72 °FClear.8 mph100%30.01 "Hg10 mi
12:35 am72 °FClear.6 mph100%30.01 "Hg10 mi
12:15 am72 °FClear.7 mph100%30.02 "Hg10 mi
11:55 pm
Wed, Jul 17
72 °FClear.7 mph100%30.01 "Hg10 mi
11:35 pm73 °FClear.5 mph94%30.01 "Hg10 mi
11:15 pm73 °FClear.7 mph94%30.01 "Hg10 mi
10:55 pm73 °FClear.3 mph94%30.03 "Hg10 mi
10:35 pm73 °FPassing clouds.5 mph94%30.06 "Hg10 mi
10:15 pm73 °FMostly cloudy.6 mph94%30.06 "Hg10 mi
9:35 pm73 °FMostly cloudy.5 mph94%30.06 "Hg7 mi
9:15 pm73 °FOvercast.7 mph94%30.05 "Hg3 mi
8:55 pm73 °FLow clouds.12 mph94%30.07 "Hg1 mi
8:35 pm82 °FPassing clouds.23 mph89%30.04 "Hg10 mi
8:15 pm82 °FClear.No wind89%29.99 "Hg10 mi
7:55 pm82 °FScattered clouds.3 mph89%29.99 "Hg10 mi
7:35 pm84 °FScattered clouds.No wind84%29.99 "Hg10 mi
7:15 pm84 °FSunny.5 mph84%29.98 "Hg10 mi
6:55 pm86 °FSunny.6 mph79%29.98 "Hg10 mi
6:35 pm86 °FBroken clouds.5 mph79%29.98 "Hg10 mi
6:15 pm88 °FPartly sunny.7 mph75%29.98 "Hg10 mi
5:55 pm88 °FScattered clouds.7 mph70%29.98 "Hg10 mi
5:35 pm88 °FScattered clouds.8 mph70%29.98 "Hg10 mi
5:15 pm90 °FScattered clouds.8 mph67%29.98 "Hg10 mi
4:55 pm88 °FPartly sunny.8 mph70%29.99 "Hg10 mi
4:35 pm88 °FScattered clouds.9 mph70%29.99 "Hg10 mi
4:15 pm88 °FBroken clouds.8 mph70%29.98 "Hg10 mi
3:55 pm88 °FScattered clouds.8 mph70%29.99 "Hg10 mi
3:35 pm88 °FBroken clouds.8 mph66%30.00 "Hg10 mi
3:15 pm90 °FBroken clouds.8 mph67%30.01 "Hg10 mi
2:55 pm88 °FPartly sunny.7 mph70%30.01 "Hg10 mi
2:35 pm88 °FPartly sunny.7 mph66%30.01 "Hg10 mi
2:15 pm86 °FPartly sunny.7 mph75%30.02 "Hg10 mi
1:55 pm88 °FBroken clouds.8 mph70%30.02 "Hg10 mi
1:35 pm86 °FPartly sunny.7 mph66%30.02 "Hg10 mi
1:15 pm88 °FPartly sunny.6 mph70%30.03 "Hg10 mi
12:55 pm88 °FBroken clouds.8 mph70%30.04 "Hg10 mi
12:35 pm86 °FBroken clouds.10 mph75%30.04 "Hg10 mi
12:15 pm86 °FScattered clouds.9 mph70%30.05 "Hg10 mi
11:55 am84 °FBroken clouds.10 mph74%30.05 "Hg10 mi
11:35 am84 °FBroken clouds.8 mph74%30.05 "Hg10 mi
11:15 am84 °FScattered clouds.9 mph79%30.05 "Hg10 mi
10:35 am82 °FMostly cloudy.8 mph79%30.05 "Hg10 mi
10:15 am82 °FPartly sunny.6 mph84%30.05 "Hg10 mi
9:55 am81 °FPartly sunny.7 mph89%30.05 "Hg10 mi
9:35 am81 °FOvercast.8 mph84%30.04 "Hg10 mi
9:15 am79 °FMostly cloudy.8 mph89%30.04 "Hg7 mi
8:35 am77 °FMostly cloudy.5 mph100%30.04 "Hg7 mi
8:15 am77 °FMostly cloudy.6 mph94%30.03 "Hg7 mi
Weather by CustomWeather, © 2019

See weather overview